Regional Weather Roundup
Issued by NWS

Home | Current Version | Previous Version | Graphics & Text | Print | Product List | Glossary On
Versions: 1 2 3 4 5 6 7 8 9 10 11 12 13 14 15 16 17 18 19 20 21 22 23 24 25 26 27 28 29 30 31 32 33 34 35 36 37 38 39 40 41 42 43 44 45 46 47 48 49 50
257
ASUS45 KSLC 290310
RWRUT

UTAH REGIONAL WEATHER ROUNDUP
NATIONAL WEATHER SERVICE SALT LAKE CITY UT
900 PM MDT SAT MAY 28 2016

UTZ001>011-023>025-290400-

NORTHERN UTAH

CITY           SKY/WX    TMP DP  RH WIND       PRES   REMARKS
BRIGHAM CITY     N/A     67  35  30 CALM      30.05R
HILL AFB       CLEAR     65  34  32 N2        30.06R
LOGAN          CLEAR     63  41  44 CALM      30.05R
OGDEN          CLEAR     63  35  35 N5        30.04R
PROVO AIRPORT  MOCLDY    64  46  52 NW12      30.06R
SALT LAKE CITY MOCLDY    69  39  33 N6        30.03R
VERNAL         CLOUDY    58  45  62 CALM      30.10R
WENDOVER       MOCLDY    70  37  30 W10       30.04R
HEBER CITY     PTCLDY    55  39  54 CALM      30.08R
WEST JORDAN    CLEAR     64  39  39 CALM      30.07R

$$

UTZ012>022-026-027-290400-

SOUTHERN/CENTRAL UTAH

CITY           SKY/WX    TMP DP  RH WIND       PRES   REMARKS
BLANDING       MOCLDY    63  31  30 N8        30.16R
BRYCE CANYON   MOCLDY    53  36  52 NE15      30.18R
CEDAR CITY     MOCLDY    64  34  32 N15G21    30.03R
DELTA          MOCLDY    63  37  39 E5        30.06R
HANKSVILLE     MOCLDY    68  32  26 W3        30.04R
MILFORD        MOCLDY    64  37  36 E5        30.04R
MOAB/CYNLANDS  MOCLDY    70  32  24 NW6       30.01R
PRICE          MOCLDY    56  39  53 N8        30.13R
ST GEORGE      PTCLDY    82  30  15 SW5       29.87R

$$

REGIONAL REPORTS     COLORADO/ARIZONA

CITY           SKY/WX    TMP DP  RH WIND       PRES   REMARKS
CRAIG, CO      CLOUDY    53  39  59 SW5       30.15R
GRAND JUNCTION PTCLDY    66  34  30 W5        30.06R
RIFLE          CLOUDY    56  38  50 CALM      30.11R
MONTROSE       CLOUDY    66  29  24 CALM      30.11R
CORTEZ         CLEAR     58  32  37 NE8       30.10R
PAGE, AZ       PTCLDY    78  27  15 N5        29.95R
GRAND CANYON   PTCLDY    63  27  25 CALM      30.11R
KINGMAN        PTCLDY    78  25  14 MISG      29.90R
FLAGSTAFF      PTCLDY    58  21  24 CALM      30.14R

$$

REGIONAL REPORTS    NEVADA/IDAHO/WYOMING

CITY           SKY/WX    TMP DP  RH WIND       PRES   REMARKS
LAS VEGAS, NV  MOCLDY    88  22   9 S3        29.76R
ELY            MOCLDY    56  39  53 NW5       30.12R
ELKO           MOCLDY    64  39  39 S9        30.03S
POCATELLO, ID  CLOUDY    56  34  43 W8        30.07R
BURLEY         CLEAR     61  29  29 W6        30.04R
EVANSTON, WY   CLEAR     51  30  44 W10       30.17R
ROCK SPRINGS   CLOUDY    54  29  38 W10       30.14R
KEMMERER         N/A     48  32  53 NW7       30.18R

$$




USA.gov is the U.S. government's official web portal to all federal, state and local government web resources and services.